TAP493 LFBO-LPPT

Flight info

Callsign TAP493
Flight time N/A
Altitude 35000
Route GAUDE7A GAUDE DCT LATEK N995 PPN DCT MIRPO DCT DGO DCT NEA DCT ARDID DCT INBOM INBOM2A
Aircraft A321/M-SDE3FGHIRWY/LB1

Departure

Time 2026-04-28 18:13
Airport Toulouse-Blagnac Airport (LFBO)

Arrival

Time N/A
Airport Lisbon Humberto Delgado Airport (LPPT)
Time Latitude Longitude Altitude Speed Heading
2026-04-28 17:54 43.62983 1.37320 490 ft 0 kts 45°
2026-04-28 18:04 43.62980 1.37315 494 ft 2 kts 44°
2026-04-28 18:04 43.62966 1.37297 483 ft 3 kts 37°
2026-04-28 18:04 43.62949 1.37282 489 ft 3 kts 28°
2026-04-28 18:04 43.62931 1.37270 489 ft 3 kts 18°
2026-04-28 18:05 43.62911 1.37264 485 ft 3 kts
2026-04-28 18:05 43.62898 1.37264 487 ft 3 kts 347°
2026-04-28 18:05 43.62885 1.37274 489 ft 3 kts 356°
2026-04-28 18:05 43.62878 1.37276 489 ft 1 kts 324°
2026-04-28 18:06 43.62877 1.37278 488 ft 0 kts 323°
2026-04-28 18:08 43.62893 1.37260 484 ft 8 kts 319°
2026-04-28 18:08 43.62888 1.37179 490 ft 12 kts 234°
2026-04-28 18:08 43.62841 1.37051 492 ft 16 kts 266°
2026-04-28 18:08 43.62898 1.36945 491 ft 13 kts 321°
2026-04-28 18:09 43.62967 1.36869 489 ft 13 kts 323°
2026-04-28 18:09 43.63042 1.36794 492 ft 14 kts 324°
2026-04-28 18:09 43.63120 1.36716 493 ft 14 kts 323°
2026-04-28 18:09 43.63193 1.36641 487 ft 12 kts 323°
2026-04-28 18:10 43.63268 1.36565 484 ft 14 kts 323°
2026-04-28 18:10 43.63353 1.36475 489 ft 18 kts 322°
2026-04-28 18:10 43.63451 1.36368 494 ft 17 kts 322°
2026-04-28 18:10 43.63542 1.36273 492 ft 16 kts 326°
2026-04-28 18:11 43.63627 1.36192 485 ft 14 kts 324°
2026-04-28 18:11 43.63700 1.36116 487 ft 13 kts 321°
2026-04-28 18:11 43.63778 1.36028 490 ft 14 kts 321°
2026-04-28 18:11 43.63813 1.35930 491 ft 11 kts 245°
2026-04-28 18:12 43.63771 1.35849 489 ft 10 kts 231°
2026-04-28 18:12 43.63711 1.35794 490 ft 10 kts 167°
2026-04-28 18:12 43.63686 1.35815 488 ft 1 kts 143°
2026-04-28 18:12 43.63586 1.35919 494 ft 50 kts 142°
2026-04-28 18:13 43.63123 1.36400 488 ft 114 kts 143°
2026-04-28 18:13 43.62352 1.37197 510 ft 160 kts 145°
2026-04-28 18:13 43.61462 1.38125 1086 ft 160 kts 142°
2026-04-28 18:13 43.60562 1.39037 1743 ft 162 kts 141°
2026-04-28 18:14 43.59611 1.39975 2038 ft 178 kts 141°
2026-04-28 18:14 43.58539 1.41029 2191 ft 200 kts 141°
2026-04-28 18:14 43.57363 1.42189 2318 ft 222 kts 141°
2026-04-28 18:14 43.56018 1.43517 2505 ft 247 kts 142°
2026-04-28 18:15 43.54600 1.44909 2984 ft 258 kts 143°
2026-04-28 18:15 43.53130 1.46345 3764 ft 259 kts 143°
2026-04-28 18:15 43.51660 1.47778 4566 ft 260 kts 143°
2026-04-28 18:15 43.50110 1.49105 5203 ft 267 kts 160°
2026-04-28 18:16 43.48260 1.49283 5849 ft 274 kts 193°
2026-04-28 18:16 43.46614 1.47979 6495 ft 279 kts 228°
2026-04-28 18:16 43.45749 1.45622 7157 ft 280 kts 259°
2026-04-28 18:16 43.45585 1.42955 7875 ft 281 kts 264°
2026-04-28 18:17 43.45004 1.40411 8532 ft 282 kts 237°
2026-04-28 18:17 43.43686 1.38420 9262 ft 282 kts 223°
2026-04-28 18:17 43.42286 1.36527 9978 ft 282 kts 227°
2026-04-28 18:17 43.40949 1.34548 10609 ft 284 kts 227°
2026-04-28 18:18 43.39623 1.32527 11235 ft 286 kts 228°
2026-04-28 18:18 43.38284 1.30486 11854 ft 288 kts 227°
2026-04-28 18:18 43.36890 1.28392 12054 ft 307 kts 227°
2026-04-28 18:18 43.35912 1.26939 12143 ft 319 kts 227°
2026-04-28 18:19 43.33831 1.23873 12587 ft 333 kts 226°
2026-04-28 18:19 43.32334 1.21479 13127 ft 337 kts 235°
2026-04-28 18:19 43.31200 1.18647 13719 ft 341 kts 247°
2026-04-28 18:19 43.30546 1.15516 14257 ft 345 kts 259°
2026-04-28 18:20 43.30406 1.12213 14795 ft 349 kts 271°
2026-04-28 18:20 43.30516 1.08875 15321 ft 351 kts 271°
2026-04-28 18:20 43.30620 1.05512 15849 ft 354 kts 270°